Temperature
24 25 26 26 26 26 25 22 22 22 21 21 21 21 21 22 21 21 21 21 21 21 20 20 20 19 19 19 18 18 18 17 17 17 16 16 16 16 15 15 15 15 15 14
24 25 25 26 26 26 25 24 23 22 22 21 22 22 22 22 21 21 20 20 21 21 20 20 20 19 19 18 18 18 17 17 17 17 16 16 16 15 15 15 15 14 14 14
22 23 24 24 25 25 24 24 24 22 22 21 21 21 21 22 21 21 21 20 20 20 20 20 20 19 19 18 18 18 17 17 17 16 16 15 15 15 15 15 14 14 14 14
20 22 23 22 24 25 24 23 22 22 21 21 21 22 22 22 22 22 21 21 20 20 20 20 19 19 19 18 18 17 17 17 16 16 15 15 15 15 15 14 14 14 14 14
19 21 22 23 24 24 23 22 22 22 22 22 22 22 21 22 22 22 22 21 20 20 20 19 19 19 18 18 17 17 17 16 16 15 15 15 15 15 14 14 14 14 13 13
19 21 21 22 24 25 23 21 22 22 21 21 22 19 20 22 22 21 21 21 20 20 19 19 18 18 18 18 17 17 16 16 15 15 15 15 15 14 14 14 14 13 13 13
19 20 21 22 23 24 22 20 22 22 22 22 21 20 22 22 21 21 21 20 20 20 19 19 18 18 18 17 17 16 16 16 15 15 15 15 14 14 14 14 14 13 13 13
18 19 20 22 22 21 20 22 22 22 22 22 22 22 22 21 21 21 20 20 20 19 19 18 18 17 17 17 16 16 16 15 15 15 15 14 14 14 14 13 13 13 13 13
18 19 20 22 22 23 23 22 22 22 22 22 22 21 21 20 20 20 20 19 19 19 18 18 17 17 17 16 16 16 15 15 15 14 14 14 14 14 13 13 13 13 13 13
18 19 20 22 22 22 23 23 23 22 22 22 22 21 21 20 20 19 19 19 18 18 18 17 17 17 16 16 16 15 15 15 14 14 14 14 14 13 13 13 13 13 13 12
18 19 20 21 22 22 22 22 22 22 22 22 22 21 21 20 19 19 19 18 18 18 17 17 17 16 16 16 16 15 15 15 14 14 14 13 13 13 13 13 13 13 13 12
17 18 18 20 21 22 21 21 22 22 21 21 21 21 20 20 19 19 18 18 17 17 17 17 16 16 16 15 15 15 15 14 14 14 14 13 13 13 13 13 13 12 12 12
20 20 20 21 21 21 21 21 21 21 21 21 20 20 20 19 19 18 18 18 17 17 16 16 16 16 15 15 15 15 14 14 14 14 13 13 13 13 13 13 13 12 12 12
20 20 20 20 20 20 20 20 21 21 20 20 20 20 19 19 18 18 17 17 17 16 16 16 16 15 15 15 15 14 14 14 14 14 13 13 13 13 13 12 12 12 12 12
20 20 20 20 20 20 20 20 20 20 20 19 19 19 19 18 18 17 17 16 16 16 16 15 15 15 15 15 14 14 14 14 13 13 13 13 13 12 12 12 12 12 12 12
19 19 19 19 19 19 19 19 19 19 19 19 19 18 18 18 17 17 16 16 16 15 15 15 15 15 14 14 14 14 13 13 13 13 13 12 12 12 12 12 12 12 12 11
18 18 18 18 18 19 18 19 18 18 18 18 18 18 18 17 17 16 16 16 16 15 15 15 15 14 14 14 14 14 13 13 13 13 12 12 12 12 12 12 12 12 11 11
18 18 18 18 18 18 18 18 18 18 18 18 18 17 17 17 16 16 16 16 15 15 15 15 14 14 14 14 14 13 13 13 13 12 12 12 12 12 12 11 11 11 11 11
18 18 18 18 18 18 17 17 17 17 17 17 17 17 16 16 16 16 15 15 15 15 15 14 14 14 14 13 13 13 13 13 12 12 12 12 12 11 11 11 11 11 11 10
17 17 17 17 17 17 17 17 17 17 16 17 16 16 16 16 16 15 15 15 15 15 15 14 14 14 13 13 13 13 13 12 12 12 12 11 11 11 11 11 11 11 10 10
16 16 16 16 16 16 16 16 16 16 16 16 16 16 15 15 15 15 14 14 14 14 14 14 14 13 13 13 13 12 12 12 12 11 11 11 11 11 11 11 11 10 10 10
16 16 16 16 16 16 16 16 16 16 16 16 15 15 15 15 15 14 14 14 14 14 14 14 13 13 13 13 12 12 12 12 12 11 11 11 11 11 10 10 10 10 10 10
15 15 15 15 15 15 15 15 15 15 15 15 15 15 15 14 14 14 14 14 14 13 13 13 13 13 12 12 12 12 12 12 11 11 11 11 10 10 10 10 10 10 10 9
15 15 15 15 15 15 15 15 15 15 15 15 15 14 14 14 14 14 14 13 13 13 13 13 12 12 12 12 12 12 11 11 11 11 10 10 10 10 10 10 10 10 9 9
14 14 14 14 14 14 15 14 14 14 14 14 14 14 14 14 14 13 13 13 13 13 13 12 12 12 12 11 11 11 11 11 10 10 10 10 10 10 10 10 10 9 9 9
14 14 14 14 14 14 14 14 14 14 14 14 14 13 13 13 13 13 13 13 12 12 12 12 12 12 11 11 11 11 10 10 10 10 10 10 10 10 9 9 9 9 9 9
13 13 13 13 13 13 14 14 13 13 13 13 13 13 13 13 13 13 13 12 12 12 12 12 12 11 11 11 11 11 10 10 10 10 10 10 9 9 9 9 9 9 9 9
Wind_Speed
3 3 2 1 2 1 3 6 6 6 7 8 9 9 9 8 8 8 6 6 7 7 6 5 5 5 5 4 4 5 5 4 2 2 1 1 1 1 1 1 1 1 1 2
3 3 2 2 2 1 2 3 5 5 3 5 6 5 6 6 8 7 7 8 8 7 7 6 6 5 5 4 4 4 4 3 2 1 1 1 1 1 1 1 1 2 2 1
1 3 4 2 2 3 3 3 6 5 5 5 6 7 8 8 8 8 8 8 8 8 7 6 6 7 6 5 4 5 3 2 2 2 1 1 1 1 1 1 1 2 1 1
1 4 1 6 3 5 6 2 2 4 5 7 9 8 7 7 8 8 8 8 8 7 6 5 5 5 5 4 4 4 3 2 2 2 2 1 1 1 1 1 2 1 1 1
4 2 4 5 3 3 6 2 1 4 4 5 6 4 1 3 6 8 8 7 7 7 6 5 5 5 5 4 4 3 2 2 2 2 2 1 1 1 1 2 2 1 1 1
4 4 4 6 5 1 8 2 2 4 5 4 5 4 3 3 5 6 6 6 6 6 6 6 5 6 6 4 3 2 2 2 2 2 2 2 2 1 1 2 2 1 1 0
4 4 5 6 5 3 5 5 3 3 5 5 4 5 4 5 6 6 6 6 7 7 6 5 5 6 5 4 3 3 2 2 1 2 3 3 2 1 1 1 1 1 1 1
4 3 6 4 3 4 5 3 3 4 4 5 5 5 5 6 6 7 7 6 7 7 5 4 5 6 5 3 3 2 2 2 1 1 2 2 2 1 1 1 1 1 0 1
6 6 5 2 4 5 6 5 4 4 4 7 7 6 5 5 6 7 7 6 6 7 5 3 4 5 5 3 2 2 2 1 1 1 1 1 2 1 1 1 1 1 1 2
2 1 1 2 3 3 4 5 4 5 6 7 7 7 7 7 6 6 5 5 5 5 5 4 3 4 4 3 3 3 2 1 1 1 1 1 1 1 2 2 2 2 2 2
2 0 3 3 3 3 3 4 5 5 4 6 8 7 7 7 6 5 5 4 5 5 5 4 4 3 3 3 4 3 2 1 1 1 1 1 1 2 3 3 4 4 4 3
4 5 4 3 2 3 5 4 4 5 4 3 7 7 6 6 5 5 5 4 4 4 5 5 4 4 3 3 4 4 2 1 1 1 1 1 1 2 2 2 2 4 5 5
4 3 4 4 2 3 3 2 3 4 4 4 5 6 7 5 4 4 4 4 5 5 5 5 4 4 3 3 4 4 3 3 2 2 2 2 2 2 2 3 2 3 4 5
3 5 4 2 2 2 2 2 3 3 3 4 4 5 6 5 5 5 4 4 4 4 4 5 4 4 4 4 4 3 3 3 3 2 2 2 2 3 3 3 2 3 4 5
2 4 3 2 2 2 2 3 3 2 2 3 4 5 6 6 6 6 5 4 4 4 4 4 4 3 3 4 4 3 3 2 2 2 2 2 2 2 2 3 3 3 2 2
2 4 4 3 2 2 2 2 1 1 2 3 4 4 5 6 5 4 4 4 5 5 4 4 4 3 3 3 3 2 2 3 3 2 2 1 2 2 2 2 2 2 3 3
4 2 2 1 1 1 1 0 2 2 2 3 4 3 4 4 4 4 3 3 4 4 4 4 4 3 3 3 3 2 2 2 2 1 1 2 2 2 2 2 2 2 3 3
6 5 5 4 3 2 0 1 0 0 1 2 3 3 4 5 6 6 5 4 3 2 2 3 4 4 3 2 2 2 2 2 2 2 2 2 2 2 2 2 2 2 2 2
4 4 3 3 3 3 1 0 1 1 1 3 3 3 4 4 5 5 4 5 5 4 4 3 4 3 2 2 2 2 2 2 1 1 1 1 1 2 2 2 2 2 2 2
3 3 2 2 2 2 1 1 1 0 1 2 2 2 3 3 4 5 4 4 5 5 5 4 4 3 2 3 3 2 2 2 1 1 1 2 2 2 2 2 3 3 2 2
2 2 1 1 1 1 2 2 2 2 1 1 2 4 4 4 4 4 4 4 4 4 4 4 3 3 3 3 3 2 2 2 1 2 2 2 2 2 2 3 3 3 3 3
1 1 1 1 1 2 2 2 2 2 1 1 1 3 4 3 3 3 4 4 4 5 4 3 3 4 4 4 3 3 2 2 2 2 2 2 2 2 2 2 2 2 3 3
1 1 1 1 1 1 1 1 2 2 2 2 3 3 3 3 3 3 3 3 3 5 4 3 4 4 4 3 2 2 2 2 2 2 2 2 3 2 2 2 2 2 3 3
1 1 2 2 0 1 1 2 2 2 2 2 3 4 3 2 1 2 3 4 5 5 3 3 4 4 4 2 2 2 2 2 2 2 2 3 3 2 2 2 2 2 3 3
2 2 2 1 1 2 2 2 1 1 1 1 1 1 1 2 3 2 2 2 3 3 2 3 3 3 3 2 1 2 2 3 3 3 2 2 3 3 2 3 3 2 2 2
2 2 3 3 3 3 2 2 1 1 1 1 0 0 1 1 1 1 2 2 3 3 2 2 2 3 2 2 2 2 2 2 3 2 2 2 3 3 2 3 3 2 2 2
2 1 1 0 1 0 1 2 2 2 2 2 1 1 1 1 1 1 2 2 2 2 2 2 2 2 2 2 2 2 2 2 2 2 3 3 3 2 2 2 2 2 2 2
Wind_Direction
187 202 124 105 324 51 119 157 163 189 178 202 192 179 174 163 149 143 152 158 160 160 166 160 153 149 149 154 161 152 141 145 171 201 194 184 185 193 183 142 102 104 84 75
12 3 54 19 321 78 95 123 143 148 192 205 175 156 157 163 155 153 162 169 167 160 158 161 160 156 150 149 152 140 140 161 176 174 177 189 203 188 156 114 99 86 90 91
296 321 46 322 260 128 108 118 147 172 205 163 149 161 173 170 161 163 169 169 169 166 169 173 168 160 160 165 150 140 151 167 169 166 169 194 182 131 146 144 114 97 77 57
127 37 240 249 254 133 110 67 106 139 158 161 174 179 177 166 161 165 165 163 167 169 169 167 161 156 153 142 134 141 148 159 173 167 184 190 146 147 165 153 142 129 90 68
118 157 276 291 299 141 123 42 44 134 148 156 147 107 83 180 165 168 165 162 161 162 157 150 152 149 133 127 128 133 152 172 185 175 172 163 160 178 171 145 142 145 133 125
126 148 222 251 281 166 104 59 318 120 139 150 127 127 217 188 152 149 145 141 137 133 125 133 148 139 128 131 133 157 185 192 195 181 166 169 174 162 155 148 156 133 94 109
150 186 248 264 290 66 113 218 238 133 143 142 154 187 187 142 130 135 136 136 132 128 131 144 145 134 135 144 176 197 178 158 157 169 172 169 153 144 140 133 121 101 93 343
151 170 242 281 61 128 185 188 146 128 133 128 121 113 113 122 131 130 128 129 133 132 133 137 136 136 143 174 197 166 141 139 167 203 199 160 145 158 160 142 128 148 184 299
178 200 220 205 159 170 150 141 138 134 134 125 115 119 123 135 135 136 139 137 137 138 138 144 145 147 159 196 176 143 133 169 229 235 227 176 159 173 180 179 177 202 207 240
96 235 173 89 104 115 128 136 145 138 131 128 133 138 138 139 139 135 135 137 139 138 143 162 172 170 179 185 162 143 159 209 221 214 256 268 213 191 191 205 206 208 210 222
88 175 63 44 83 101 93 92 105 111 123 137 135 138 143 144 145 145 143 148 151 153 159 170 167 170 183 172 152 153 174 197 226 223 220 246 253 236 216 224 213 200 204 204
207 219 175 206 192 115 104 103 119 112 104 129 138 142 143 150 153 151 153 154 154 161 168 171 169 173 180 169 158 156 166 197 214 224 224 218 233 304 317 247 241 211 207 203
186 192 163 164 117 86 93 98 114 130 138 140 141 144 145 149 153 147 152 161 172 181 177 169 171 185 193 176 162 170 187 206 213 216 218 217 217 216 262 306 306 250 235 227
117 101 85 87 95 77 88 102 98 97 107 132 136 136 138 137 144 155 172 185 178 167 166 169 172 193 203 177 167 178 194 216 211 208 212 220 222 225 222 223 253 278 268 241
94 116 135 117 84 72 82 79 75 66 90 107 121 137 145 151 164 176 177 169 152 149 158 160 169 200 201 178 176 187 198 213 212 210 214 229 244 249 240 223 220 237 262 274
136 105 103 94 72 48 64 80 108 201 150 135 134 150 165 169 167 161 157 150 152 166 175 166 176 198 180 164 164 183 214 218 210 207 218 239 253 252 237 216 213 221 231 239
133 139 144 144 120 66 356 228 186 193 163 156 169 171 157 148 145 152 165 163 162 169 171 173 186 182 159 162 171 190 207 222 215 200 214 226 233 225 222 220 219 229 242 235
167 171 169 170 170 148 350 330 107 119 178 184 159 146 152 163 174 182 182 163 140 135 167 185 181 173 178 181 176 177 182 193 204 223 234 233 234 232 225 226 228 234 257 243
152 150 152 155 160 151 145 241 227 248 174 144 147 157 175 182 177 174 168 157 164 189 218 205 181 174 198 216 178 169 168 181 217 236 232 243 244 228 215 210 209 218 221 216
110 127 137 138 123 132 153 207 188 154 160 141 141 145 157 171 168 164 163 184 205 208 204 187 178 184 205 217 190 175 176 188 198 214 234 239 233 236 231 219 208 213 218 211
82 87 114 179 184 185 194 184 171 183 211 186 175 176 177 180 169 163 172 209 239 208 186 185 185 193 199 197 177 173 178 179 190 209 229 240 237 239 238 229 220 212 206 206
40 55 43 5 234 236 221 185 176 176 191 206 172 162 162 172 178 185 205 212 211 183 176 187 194 194 187 171 169 183 193 195 203 215 220 225 225 234 240 229 222 219 209 206
5 5 348 351 275 244 197 157 169 171 180 187 177 178 186 192 184 182 224 240 196 178 177 193 196 187 181 173 181 193 198 195 210 220 219 220 224 229 237 231 219 212 207 209
333 321 315 319 348 127 163 228 217 203 201 199 194 188 179 171 213 227 213 208 196 188 191 198 190 181 174 176 185 202 211 208 216 222 220 221 221 224 236 240 233 228 222 216
274 279 282 288 260 233 223 216 205 229 227 225 211 193 174 170 184 209 204 196 184 175 182 193 189 178 176 185 194 212 223 225 222 224 231 234 232 233 238 238 227 226 223 218
243 251 257 244 225 213 199 180 188 205 194 173 169 163 142 146 153 159 166 171 165 168 172 185 191 189 198 202 197 211 224 233 237 238 242 241 240 238 240 241 230 217 208 202
271 272 261 340 323 195 166 165 165 175 176 157 161 194 165 141 133 138 141 150 155 152 148 156 170 184 190 198 207 220 230 236 232 235 241 241 234 228 227 226 217 206 197 192
Height
1494 1490 1489 1492 1491 1489 1495 1502 1512 1511 1510 1505 1500 1500 1501 1502 1504 1505 1507 1508 1509 1510 1511 1513 1514 1515 1515 1516 1516 1516 1516 1516 1516 1516 1515 1515 1514 1513 1512 1511 1510 1509 1508 1507
1496 1489 1489 1492 1489 1487 1490 1494 1500 1502 1504 1496 1497 1499 1500 1501 1502 1504 1506 1507 1508 1508 1510 1511 1512 1513 1514 1514 1514 1514 1515 1515 1515 1514 1514 1513 1512 1512 1511 1510 1509 1507 1506 1505
1507 1496 1494 1503 1492 1490 1492 1491 1494 1503 1500 1496 1498 1498 1499 1500 1501 1502 1504 1505 1507 1508 1509 1510 1511 1511 1512 1513 1513 1513 1513 1514 1513 1513 1512 1512 1511 1510 1509 1508 1507 1506 1505 1504
1510 1506 1515 1503 1485 1484 1489 1492 1490 1491 1492 1493 1494 1495 1497 1498 1499 1500 1502 1503 1505 1507 1508 1509 1510 1510 1511 1512 1512 1512 1511 1512 1512 1511 1511 1510 1509 1508 1508 1507 1506 1505 1504 1503
1515 1517 1511 1496 1485 1485 1491 1497 1491 1491 1492 1493 1494 1496 1498 1498 1498 1499 1500 1501 1503 1505 1506 1508 1508 1509 1510 1510 1510 1511 1510 1510 1510 1509 1508 1508 1507 1506 1506 1505 1504 1503 1502 1501
1511 1514 1517 1500 1483 1480 1486 1501 1492 1490 1491 1492 1493 1500 1499 1497 1497 1498 1500 1501 1502 1504 1505 1506 1507 1508 1508 1508 1509 1508 1508 1508 1508 1507 1506 1506 1505 1504 1504 1503 1503 1502 1501 1500
1509 1512 1505 1488 1481 1481 1500 1503 1491 1489 1489 1490 1492 1494 1495 1495 1496 1497 1499 1500 1502 1503 1504 1505 1506 1506 1506 1507 1507 1507 1507 1506 1506 1505 1504 1504 1503 1503 1502 1502 1501 1501 1500 1499
1508 1513 1509 1484 1482 1488 1491 1488 1488 1488 1488 1489 1490 1491 1492 1494 1495 1496 1498 1499 1500 1502 1503 1504 1504 1505 1505 1505 1505 1505 1504 1504 1503 1503 1503 1502 1502 1501 1501 1500 1500 1499 1499 1498
1496 1497 1486 1482 1483 1484 1485 1486 1487 1487 1488 1488 1489 1491 1492 1494 1495 1496 1497 1498 1500 1501 1502 1503 1503 1503 1503 1503 1503 1503 1503 1502 1502 1501 1501 1500 1500 1499 1499 1499 1498 1497 1497 1496
1490 1487 1483 1483 1483 1484 1484 1485 1486 1487 1488 1488 1489 1490 1492 1493 1494 1495 1497 1498 1499 1500 1501 1501 1502 1502 1502 1502 1502 1502 1501 1501 1500 1500 1499 1499 1498 1498 1497 1497 1496 1495 1495 1494
1488 1486 1484 1484 1484 1484 1485 1486 1487 1487 1488 1489 1489 1490 1491 1492 1493 1494 1496 1497 1498 1498 1499 1499 1500 1500 1500 1500 1500 1500 1499 1499 1498 1498 1498 1497 1497 1496 1495 1495 1494 1493 1493 1492
1489 1484 1484 1484 1484 1484 1485 1485 1486 1487 1488 1489 1488 1488 1490 1491 1492 1493 1494 1495 1496 1497 1497 1498 1498 1498 1498 1498 1498 1498 1497 1496 1496 1496 1495 1495 1494 1494 1493 1493 1493 1492 1491 1491
1480 1481 1482 1483 1484 1484 1485 1486 1486 1487 1487 1488 1488 1489 1490 1490 1491 1492 1493 1493 1494 1495 1495 1495 1496 1496 1496 1496 1496 1495 1495 1495 1494 1494 1493 1493 1492 1491 1491 1491 1490 1490 1489 1488
1479 1480 1482 1482 1483 1484 1484 1485 1486 1486 1487 1487 1487 1488 1488 1489 1489 1490 1491 1491 1492 1493 1493 1493 1493 1494 1494 1494 1494 1493 1493 1493 1493 1492 1491 1490 1490 1489 1488 1488 1487 1487 1487 1486
1480 1480 1481 1482 1483 1483 1483 1484 1484 1484 1486 1486 1486 1486 1487 1487 1488 1488 1489 1489 1490 1490 1491 1491 1491 1491 1491 1491 1491 1491 1490 1490 1490 1490 1489 1488 1487 1486 1486 1485 1484 1484 1484 1483
1479 1480 1481 1481 1481 1482 1482 1482 1483 1483 1484 1484 1484 1484 1485 1485 1486 1487 1487 1487 1488 1488 1488 1488 1489 1489 1489 1489 1488 1488 1488 1488 1487 1487 1486 1485 1484 1483 1483 1482 1482 1481 1481 1480
1477 1478 1479 1480 1480 1481 1481 1481 1481 1481 1481 1482 1482 1482 1483 1483 1484 1484 1485 1486 1486 1486 1486 1486 1487 1487 1487 1486 1486 1485 1485 1485 1485 1484 1483 1482 1482 1481 1481 1480 1480 1479 1479 1478
1475 1476 1477 1478 1479 1479 1480 1479 1480 1480 1479 1479 1480 1480 1480 1480 1481 1481 1482 1483 1484 1484 1484 1484 1484 1484 1484 1484 1484 1483 1482 1482 1481 1481 1480 1479 1479 1479 1478 1478 1477 1476 1476 1475
1473 1474 1475 1476 1476 1477 1478 1478 1478 1478 1477 1477 1477 1478 1478 1478 1479 1480 1480 1481 1481 1481 1481 1482 1482 1482 1482 1482 1482 1481 1480 1479 1479 1478 1478 1477 1476 1476 1475 1474 1474 1474 1473 1472
1470 1472 1472 1473 1474 1475 1476 1476 1476 1476 1476 1475 1475 1476 1476 1476 1477 1477 1477 1478 1478 1479 1479 1479 1479 1479 1479 1479 1479 1479 1478 1477 1476 1476 1475 1475 1474 1473 1473 1472 1471 1471 1470 1469
1469 1470 1471 1471 1471 1472 1473 1473 1473 1473 1473 1473 1473 1473 1473 1474 1475 1475 1475 1476 1476 1477 1477 1477 1477 1477 1477 1477 1477 1476 1476 1475 1474 1473 1473 1472 1472 1471 1470 1470 1469 1468 1467 1466
1468 1468 1468 1468 1469 1470 1470 1470 1470 1470 1470 1470 1470 1470 1471 1472 1472 1473 1473 1474 1474 1474 1474 1474 1475 1475 1475 1475 1474 1474 1473 1472 1472 1471 1471 1470 1470 1469 1468 1467 1466 1465 1464 1463
1466 1466 1466 1466 1467 1467 1467 1467 1468 1468 1468 1468 1468 1468 1469 1469 1470 1470 1470 1470 1471 1471 1471 1472 1472 1472 1472 1472 1472 1471 1471 1470 1469 1469 1469 1468 1468 1467 1466 1464 1463 1463 1462 1461
1464 1464 1464 1464 1464 1464 1464 1464 1465 1466 1466 1466 1466 1466 1467 1467 1467 1468 1468 1468 1468 1469 1469 1470 1470 1470 1470 1469 1469 1469 1468 1468 1467 1467 1466 1466 1465 1464 1463 1462 1461 1460 1459 1458
1463 1462 1462 1462 1462 1462 1462 1462 1463 1463 1463 1464 1464 1464 1465 1465 1465 1465 1466 1466 1466 1467 1467 1467 1467 1468 1467 1467 1466 1466 1466 1465 1465 1465 1464 1464 1463 1462 1461 1460 1459 1457 1456 1455
1460 1460 1460 1460 1460 1460 1460 1460 1460 1460 1461 1461 1462 1462 1463 1463 1463 1463 1463 1464 1464 1464 1464 1465 1465 1465 1465 1464 1463 1463 1463 1462 1462 1462 1462 1461 1460 1459 1458 1457 1456 1454 1453 1452
1458 1458 1458 1458 1457 1457 1457 1457 1458 1458 1459 1459 1460 1460 1461 1461 1461 1461 1461 1462 1462 1462 1462 1462 1463 1463 1462 1462 1461 1461 1460 1460 1460 1459 1459 1458 1457 1456 1454 1453 1452 1452 1450 1449